Flag for Syria Weather past 2 weeks in Damascus, Syria

Now
79 °F

Sunny.


Feels Like: 78 °F
Forecast: 53 / 80 °F
Wind: 14 mph from Southwest

Location: Damascus Int. Airport

Current Time: Oct 23, 2014 at 5:02:03 PM

Latest Report: Oct 23, 2014 at 4:00 PM


Visibility: 10 mi

Pressure: 30.01 "Hg

Humidity: 23%

Dew point: 37 °F

Location of DamascusLocation

Historic Weather in Damascus — Graph

°F

Damascus temperature yesterday

Maximum temperature yesterday: 75 °F (at 3:00 PM)
Minimum temperature yesterday: 39 °F (at 7:00 AM)
Average temperature yesterday: 59 °F

Past Weeks' High & Low Weather Summary

 TemperatureHumidityPressure
High91 °F (Oct 8, 4:00 PM)100% (Oct 19, 11:00 PM)30.18 "Hg (Oct 19, 11:00 PM)
Low37 °F (Oct 21, 7:00 AM)15% (Oct 8, 4:00 PM)29.77 "Hg (Oct 19, 2:00 PM)
Average66 °F56%30.01 "Hg
* Reported Oct 8 4:00 PM — Oct 23 4:00 PM, Damascus, Weather by CustomWeather, © 2014

Note: Actual official high and low records may vary slightly from our data, if they occured in-between our weather recording intervals... More about our weather records

Advertising

Damascus weather history for previous 24 hours

 ConditionsComfort  
Time TempWeatherWind HumidityBarometerVisibility
4:00 PM
Oct 23
79 °FSunny.14 mph23%30.01 "Hg10 mi
3:00 PM77 °FSunny.5 mph24%30.01 "Hg10 mi
2:00 PM77 °FSunny.7 mph22%30.04 "Hg10 mi
1:00 PM75 °FSunny.2 mph22%30.04 "Hg10 mi
12:00 PM72 °FSunny.5 mph25%30.07 "Hg10 mi
11:00 AM70 °FSunny.9 mph27%30.07 "Hg10 mi
10:00 AM66 °FScattered clouds.9 mph30%30.07 "HgN/A
9:00 AM61 °FScattered clouds.7 mph39%30.09 "HgN/A
8:00 AM57 °FPartly sunny.5 mph48%30.07 "HgN/A
7:00 AM57 °FPassing clouds.9 mph44%30.04 "HgN/A
6:00 AM57 °FPassing clouds.9 mph44%30.04 "HgN/A
5:00 AM57 °FPassing clouds.7 mph48%30.04 "HgN/A
4:00 AM59 °FPassing clouds.7 mph42%30.04 "HgN/A
3:00 AM61 °FPassing clouds.7 mph36%30.07 "HgN/A
2:00 AM59 °FPassing clouds.9 mph42%30.07 "HgN/A
1:00 AM59 °FPassing clouds.5 mph48%30.07 "HgN/A
12:00 AM59 °FPassing clouds.7 mph48%30.09 "HgN/A
11:00 PM
Oct 22
61 °FRefreshingly cool.No wind45%30.09 "HgN/A
10:00 PM61 °FPassing clouds.7 mph45%30.09 "HgN/A
9:00 PM64 °FPassing clouds.9 mph40%30.09 "HgN/A
8:00 PM66 °FPassing clouds.9 mph37%30.07 "HgN/A
7:00 PM66 °FPassing clouds.9 mph40%30.07 "HgN/A
6:00 PM72 °FScattered clouds.No wind31%30.07 "HgN/A
5:00 PM73 °FPartly sunny.No wind27%30.04 "HgN/A
Weather by CustomWeather, © 2014

See weather overviewHow to use our weather pages